Current weather by "City, St" or "zip code"  
 
Advertise Here

Current Conditions: Coeur dAlene Airport - Pappy Boyington Field, ID

Fair


62.0 F

Last Updated on May 30 2020, 1:56 am PDT
Humidity: 70%
Wind Speed: E 9.2 mph
Barometer 29.86 in
Dewpoint: 52.0 F
Visibility: 10.00 mi
Precip: --
Heat Index: NA
Wind Chill: 61 F
Current conditions at:

Coeur dAlene Airport - Pappy Boyington Field, ID (KCOE)

Lat: 47.76667 Lon: 116.81667

Local Radar Image active severe weather and emergency alerts image image weather storm and storm spotter reports image weather observation monitoring service image
Local
Radar
Active
Alerts
Storm Reports Obs
Monitoring

Sign-up For Email & Text Message Weather Alert Notification Services


Advertise Here

Observation History for Coeur dAlene Airport - Pappy Boyington Field, ID


Time Wind
(mph)
Vis
(mi)
Weather Precip (in) Temperature (F) Relative
Humidity
Wind
Chill
(F)
Heat
Index
(F)
Pressure
Air Dwpt altimeter
(in)
sea level
(mb)
Rmks
1:56 am PDT E 9.2 10.00 Fair -- 62.0 52.0 70% 61 NA 29.86 1010.8
12:56 am PDT NE 9.2 10.00 Fair -- 64.0 52.0 65% NA NA 29.86 1011.1
11:56 pm PDT NE 6.9 10.00 Fair -- 65.0 54.0 68% NA NA 29.87 1011.4
10:56 pm PDT NE 5.8 10.00 Fair -- 67.0 55.0 66% NA NA 29.88 1011.7
9:56 pm PDT E 4.6 10.00 Fair -- 70.0 57.0 64% NA NA 29.88 1011.9
8:56 pm PDT E 3.5 10.00 Fair -- 74.0 57.0 56% NA NA 29.88 1011.6
7:56 pm PDT NE 4.6 10.00 Fair -- 81.0 57.0 44% NA 81 29.88 1011.6
6:56 pm PDT N 3.5 10.00 Fair -- 84.0 55.9 38% NA 83 29.88 1011.7
5:56 pm PDT N 5.8 10.00 Fair -- 85.0 53.1 33% NA 83 29.89 1012.0
4:56 pm PDT NW 3.5 10.00 Fair -- 86.0 51.1 30% NA 84 29.90 1012.4
3:56 pm PDT 5.8 10.00 Fair -- 85.0 51.1 31% NA 83 29.91 1012.8
2:56 pm PDT N 5.8 10.00 Fair -- 84.0 51.1 32% NA 82 29.93 1013.5
1:56 pm PDT NW 3.5 10.00 Fair -- 84.0 48.9 30% NA 82 29.95 1014.2
12:56 pm PDT 4.6 10.00 Fair -- 80.0 48.9 34% NA 79 29.97 1015.1
11:56 am PDT 3.5 10.00 Fair -- 78.0 46.9 33% NA NA 29.99 1015.7
10:56 am PDT NE 6.9 10.00 Fair -- 74.0 46.0 37% NA NA 30.00 1016.2
9:56 am PDT NE 9.2 10.00 Fair -- 70.0 46.0 42% NA NA 30.01 1016.5
8:56 am PDT NE 12.7 10.00 Fair -- 67.0 45.0 45% NA NA 30.02 1016.9
7:56 am PDT N 10.4 10.00 Fair -- 63.0 44.1 50% 62 NA 30.02 1016.9
6:56 am PDT N 15.0 10.00 Fair -- 58.0 43.0 58% 55 NA 30.01 1016.6
5:56 am PDT E 10.4 10.00 Fair -- 54.0 45.0 72% 51 NA 30.02 1017.1
4:56 am PDT E 6.9 10.00 Fair -- 54.0 45.0 72% 52 NA 30.01 1016.7
3:56 am PDT E 9.2 10.00 Fair -- 55.0 46.0 72% 52 NA 30.01 1016.5
2:56 am PDT NE 8.1 10.00 Fair -- 55.0 43.0 64% 53 NA 30.01 1016.6

Regional Weather Observation


Coeur dAlene Airport - Pappy Boyington Field, ID (KCOE)

Fair
62.0 F

Spokane, Felts Field, WA (KSFF)

Fair
62.0 F

Spokane, Spokane International Airport, WA (KGEG)

Mostly Cloudy
70.0 F

Sandpoint, Sandpoint Airport, ID (KSZT)

Fair
54.0 F

Fairchild Air Force Base, WA (KSKA)

Partly Cloudy
68.0 F

Boundary County Airport, ID (K65S)

Fair
55.0 F